This is the latest recevied weather packets stored in our database for station/object JH5EWP-13. If no packets are shown the sender has not sent any weather packets the latest 10 day(s).
| Time | Temp. | Humidity | Pressure | Rain* | Wind** | Luminosity | Snow |
|---|---|---|---|---|---|---|---|
| 1777460357 | 16.67° C | 58% | 1007.5 hPa | 0 mm | - | - | - |
| 1777459457 | 17.22° C | 58% | 1007.1 hPa | 0 mm | - | - | - |
| 1777458556 | 17.22° C | 60% | 1007.1 hPa | 0 mm | - | - | - |
| 1777457656 | 17.22° C | 60% | 1007.1 hPa | 0 mm | - | - | - |
| 1777456756 | 17.22° C | 58% | 1006.8 hPa | 0 mm | - | - | - |
| 1777455856 | 17.22° C | 55% | 1006.7 hPa | 0 mm | - | - | - |
| 1777454956 | 17.22° C | 54% | 1006.8 hPa | 0 mm | - | - | - |
| 1777454055 | 17.22° C | 53% | 1006.7 hPa | 0 mm | - | - | - |
| 1777453157 | 17.78° C | 49% | 1006.7 hPa | 0 mm | - | - | - |
| 1777452257 | 17.78° C | 49% | 1006.4 hPa | 0 mm | - | - | - |
| 1777451356 | 17.78° C | 49% | 1006.5 hPa | 0 mm | - | - | - |
| 1777450456 | 17.78° C | 49% | 1006.3 hPa | 0 mm | - | - | - |
| 1777449556 | 17.78° C | 50% | 1006.4 hPa | 0 mm | - | - | - |
| 1777448656 | 17.78° C | 50% | 1006.3 hPa | 0 mm | - | - | - |
| 1777447756 | 18.33° C | 50% | 1006.3 hPa | 0 mm | - | - | - |
| 1777446856 | 18.33° C | 50% | 1006.1 hPa | 0 mm | - | - | - |
| 1777445955 | 18.33° C | 50% | 1006 hPa | 0 mm | - | - | - |
| 1777445056 | 18.33° C | 50% | 1006.1 hPa | 0 mm | - | - | - |
| 1777444156 | 18.33° C | 49% | 1005.7 hPa | 0 mm | - | - | - |
| 1777443256 | 18.89° C | 49% | 1005.8 hPa | 0 mm | - | - | - |
| 1777442355 | 18.89° C | 50% | 1005.8 hPa | 0 mm | - | - | - |
| 1777441455 | 18.89° C | 50% | 1005.7 hPa | 0 mm | - | - | - |
| 1777440556 | 19.44° C | 50% | 1005.8 hPa | 0 mm | - | - | - |
| 1777439656 | 18.89° C | 50% | 1005.8 hPa | 0 mm | - | - | - |
| 1777438756 | 19.44° C | 48% | 1005.9 hPa | 0 mm | - | - | - |
* Rain latest hour (hover to see other rain measurements)
** Current wind speed in m/s (hover to see current wind gust speed)